Time,TemperatureF,DewpointF,PressureIn,WindDirection,WindDirectionDegrees,WindSpeedMPH,WindSpeedGustMPH,Humidity,HourlyPrecipIn,Conditions,Clouds,dailyrainin,SoftwareType,DateUTC
2013-03-20 00:02:00,42.0,41.0,29.57,SSE,168,0.0,-999.0,95,-99.99,,,-99.99,,2013-03-20 07:02:00,
2013-03-20 00:11:00,42.0,41.0,29.57,SSE,168,0.0,-999.0,95,-99.99,,,-99.99,,2013-03-20 07:11:00,
2013-03-20 00:21:00,42.0,41.0,29.56,SSE,168,1.0,-999.0,95,-99.99,,,-99.99,,2013-03-20 07:21:00,
2013-03-20 00:31:00,42.0,41.0,29.55,SSE,162,1.0,-999.0,95,-99.99,,,-99.99,,2013-03-20 07:31:00,
2013-03-20 00:41:00,42.0,41.0,29.55,SSE,162,1.0,-999.0,95,-99.99,,,-99.99,,2013-03-20 07:41:00,
2013-03-20 00:52:00,43.0,42.0,29.54,SE,140,2.0,-999.0,95,-99.99,,,-99.99,,2013-03-20 07:52:00,
2013-03-20 01:01:00,43.0,42.0,29.55,SE,135,1.0,-999.0,96,-99.99,,,-99.99,,2013-03-20 08:01:00,
2013-03-20 01:11:00,43.0,42.0,29.55,SE,135,1.0,-999.0,96,-99.99,,,-99.99,,2013-03-20 08:11:00,
2013-03-20 01:21:00,43.0,42.0,29.54,SE,135,1.0,-999.0,96,-99.99,,,-99.99,,2013-03-20 08:21:00,
2013-03-20 01:32:00,43.0,42.0,29.53,SE,140,1.0,-999.0,96,-99.99,,,-99.99,,2013-03-20 08:32:00,
2013-03-20 01:42:00,43.0,42.0,29.53,SE,140,1.0,-999.0,96,-99.99,,,-99.99,,2013-03-20 08:42:00,
2013-03-20 01:52:00,43.0,42.0,29.52,SE,144,2.0,-999.0,96,-99.99,,,-99.99,,2013-03-20 08:52:00,
2013-03-20 02:01:00,43.0,42.0,29.52,East,93,2.0,-999.0,96,-99.99,,,-99.99,,2013-03-20 09:01:00,
2013-03-20 02:11:00,43.0,42.0,29.52,East,93,2.0,-999.0,96,-99.99,,,-99.99,,2013-03-20 09:11:00,
2013-03-20 02:22:00,43.0,42.0,29.50,SSE,150,2.0,-999.0,96,-99.99,,,-99.99,,2013-03-20 09:22:00,
2013-03-20 02:32:00,43.0,42.0,29.50,SE,145,2.0,-999.0,96,-99.99,,,-99.99,,2013-03-20 09:32:00,
2013-03-20 02:42:00,43.0,42.0,29.50,SE,145,2.0,-999.0,96,-99.99,,,-99.99,,2013-03-20 09:42:00,
2013-03-20 02:53:00,43.0,42.0,29.48,SSE,148,2.0,-999.0,96,-99.99,,,-99.99,,2013-03-20 09:53:00,
2013-03-20 03:02:00,43.0,42.0,29.47,SE,134,3.0,-999.0,96,-99.99,,,-99.99,,2013-03-20 10:02:00,
2013-03-20 03:12:00,43.0,42.0,29.47,SE,134,3.0,-999.0,96,-99.99,,,-99.99,,2013-03-20 10:12:00,
2013-03-20 03:22:00,43.0,42.0,29.46,SE,133,1.0,-999.0,96,-99.99,,,-99.99,,2013-03-20 10:22:00,
2013-03-20 03:32:00,43.0,42.0,29.46,SE,144,1.0,-999.0,96,-99.99,,,-99.99,,2013-03-20 10:32:00,
2013-03-20 03:42:00,43.0,42.0,29.46,SE,144,1.0,-999.0,96,-99.99,,,-99.99,,2013-03-20 10:42:00,
2013-03-20 03:53:00,43.0,42.0,29.45,SE,144,0.0,-999.0,96,-99.99,,,-99.99,,2013-03-20 10:53:00,
2013-03-20 04:02:00,44.0,43.0,29.45,SE,144,0.0,-999.0,96,-99.99,,,-99.99,,2013-03-20 11:02:00,
2013-03-20 04:11:00,44.0,43.0,29.45,SE,144,0.0,-999.0,96,-99.99,,,-99.99,,2013-03-20 11:11:00,
2013-03-20 04:22:00,44.0,43.0,29.44,SE,144,0.0,-999.0,96,-99.99,,,-99.99,,2013-03-20 11:22:00,
2013-03-20 04:32:00,44.0,43.0,29.44,SE,144,0.0,-999.0,96,-99.99,,,-99.99,,2013-03-20 11:32:00,
2013-03-20 04:42:00,44.0,43.0,29.44,SE,144,0.0,-999.0,96,-99.99,,,-99.99,,2013-03-20 11:42:00,
2013-03-20 04:52:00,44.0,43.0,29.43,SE,144,0.0,-999.0,96,-99.99,,,-99.99,,2013-03-20 11:52:00,
2013-03-20 05:02:00,44.0,43.0,29.42,SE,144,0.0,-999.0,96,-99.99,,,-99.99,,2013-03-20 12:02:00,
2013-03-20 05:11:00,44.0,43.0,29.42,SE,144,0.0,-999.0,96,-99.99,,,-99.99,,2013-03-20 12:11:00,
2013-03-20 05:22:00,44.0,43.0,29.41,SE,144,0.0,-999.0,96,-99.99,,,-99.99,,2013-03-20 12:22:00,
2013-03-20 05:32:00,44.0,43.0,29.40,SE,144,0.0,-999.0,96,-99.99,,,-99.99,,2013-03-20 12:32:00,
2013-03-20 05:42:00,44.0,43.0,29.40,SE,144,0.0,-999.0,96,-99.99,,,-99.99,,2013-03-20 12:42:00,
2013-03-20 05:52:00,45.0,44.0,29.39,SE,144,0.0,-999.0,96,-99.99,,,-99.99,,2013-03-20 12:52:00,
2013-03-20 06:02:00,44.0,43.0,29.39,SE,125,2.0,-999.0,96,-99.99,,,-99.99,,2013-03-20 13:02:00,
2013-03-20 06:12:00,44.0,43.0,29.39,SE,125,2.0,-999.0,96,-99.99,,,-99.99,,2013-03-20 13:12:00,
2013-03-20 06:22:00,44.0,43.0,29.39,SSE,150,1.0,-999.0,96,-99.99,,,-99.99,,2013-03-20 13:22:00,
2013-03-20 06:32:00,44.0,43.0,29.38,SSE,150,1.0,-999.0,96,-99.99,,,-99.99,,2013-03-20 13:32:00,
2013-03-20 06:42:00,44.0,43.0,29.38,SSE,150,1.0,-999.0,96,-99.99,,,-99.99,,2013-03-20 13:42:00,
2013-03-20 06:52:00,44.0,43.0,29.37,SSE,150,0.0,-999.0,96,-99.99,,,-99.99,,2013-03-20 13:52:00,
2013-03-20 07:01:00,44.0,43.0,29.37,SE,132,1.0,-999.0,96,-99.99,,,-99.99,,2013-03-20 14:01:00,
2013-03-20 07:11:00,44.0,43.0,29.37,SE,132,1.0,-999.0,96,-99.99,,,-99.99,,2013-03-20 14:11:00,
2013-03-20 07:22:00,44.0,43.0,29.36,SE,132,1.0,-999.0,96,-99.99,,,-99.99,,2013-03-20 14:22:00,
2013-03-20 07:32:00,44.0,43.0,29.36,SE,137,1.0,-999.0,96,-99.99,,,-99.99,,2013-03-20 14:32:00,
2013-03-20 07:42:00,44.0,43.0,29.36,SE,137,1.0,-999.0,96,-99.99,,,-99.99,,2013-03-20 14:42:00,
2013-03-20 07:52:00,44.0,43.0,29.36,SSE,149,1.0,-999.0,96,-99.99,,,-99.99,,2013-03-20 14:52:00,
2013-03-20 08:02:00,44.0,43.0,29.36,SSE,149,0.0,-999.0,96,-99.99,,,-99.99,,2013-03-20 15:02:00,
2013-03-20 08:12:00,45.0,44.0,29.36,SSE,149,1.0,-999.0,96,-99.99,,,-99.99,,2013-03-20 15:12:00,
2013-03-20 08:22:00,45.0,44.0,29.36,SSE,149,1.0,-999.0,96,-99.99,,,-99.99,,2013-03-20 15:22:00,
2013-03-20 08:32:00,46.0,45.0,29.36,SE,146,4.0,-999.0,96,-99.99,,,-99.99,,2013-03-20 15:32:00,
2013-03-20 08:42:00,46.0,45.0,29.36,SE,146,4.0,-999.0,96,-99.99,,,-99.99,,2013-03-20 15:42:00,
2013-03-20 08:53:00,48.0,47.0,29.36,SSE,148,6.0,-999.0,96,-99.99,,,-99.99,,2013-03-20 15:53:00,
2013-03-20 09:02:00,48.0,47.0,29.36,SE,140,6.0,-999.0,96,-99.99,,,-99.99,,2013-03-20 16:02:00,
2013-03-20 09:12:00,48.0,47.0,29.36,SE,140,6.0,-999.0,96,-99.99,,,-99.99,,2013-03-20 16:12:00,
2013-03-20 09:22:00,49.0,48.0,29.36,SSE,157,5.0,-999.0,96,-99.99,,,-99.99,,2013-03-20 16:22:00,
2013-03-20 09:32:00,49.0,48.0,29.37,SE,128,6.0,-999.0,96,-99.99,,,-99.99,,2013-03-20 16:32:00,
2013-03-20 09:42:00,49.0,48.0,29.37,SE,128,6.0,-999.0,96,-99.99,,,-99.99,,2013-03-20 16:42:00,
2013-03-20 09:52:00,49.0,48.0,29.38,SSE,156,7.0,-999.0,96,-99.99,,,-99.99,,2013-03-20 16:52:00,
2013-03-20 10:02:00,48.0,47.0,29.40,South,173,7.0,-999.0,96,-99.99,,,-99.99,,2013-03-20 17:02:00,
2013-03-20 10:11:00,48.0,47.0,29.40,South,173,7.0,-999.0,96,-99.99,,,-99.99,,2013-03-20 17:11:00,
2013-03-20 10:21:00,47.0,46.0,29.42,SE,138,10.0,-999.0,97,-99.99,,,-99.99,,2013-03-20 17:21:00,
2013-03-20 10:32:00,47.0,46.0,29.44,South,169,9.0,-999.0,96,-99.99,,,-99.99,,2013-03-20 17:32:00,
2013-03-20 10:42:00,47.0,46.0,29.44,South,169,9.0,-999.0,96,-99.99,,,-99.99,,2013-03-20 17:42:00,
2013-03-20 10:52:00,47.0,46.0,29.45,South,184,9.0,-999.0,95,-99.99,,,-99.99,,2013-03-20 17:52:00,
2013-03-20 11:01:00,48.0,46.0,29.47,South,187,7.0,-999.0,94,-99.99,,,-99.99,,2013-03-20 18:01:00,
2013-03-20 11:12:00,48.0,46.0,29.47,South,187,7.0,-999.0,94,-99.99,,,-99.99,,2013-03-20 18:12:00,
2013-03-20 11:22:00,48.0,46.0,29.48,SE,145,8.0,-999.0,92,-99.99,,,-99.99,,2013-03-20 18:22:00,
2013-03-20 11:32:00,49.0,46.0,29.49,SE,144,8.0,-999.0,90,-99.99,,,-99.99,,2013-03-20 18:32:00,
2013-03-20 11:42:00,49.0,46.0,29.49,SE,144,8.0,-999.0,90,-99.99,,,-99.99,,2013-03-20 18:42:00,
2013-03-20 11:52:00,49.0,46.0,29.49,SE,144,8.0,-999.0,90,-99.99,,,-99.99,,2013-03-20 18:52:00,
2013-03-20 12:02:00,49.0,46.0,29.51,SSE,159,8.0,-999.0,88,-99.99,,,-99.99,,2013-03-20 19:02:00,
2013-03-20 12:11:00,49.0,46.0,29.51,SSE,159,8.0,-999.0,88,-99.99,,,-99.99,,2013-03-20 19:11:00,
2013-03-20 12:22:00,50.0,45.0,29.52,South,188,6.0,-999.0,84,-99.99,,,-99.99,,2013-03-20 19:22:00,
2013-03-20 12:32:00,50.0,44.0,29.53,SE,146,9.0,-999.0,80,-99.99,,,-99.99,,2013-03-20 19:32:00,
2013-03-20 12:42:00,50.0,44.0,29.53,SE,146,9.0,-999.0,80,-99.99,,,-99.99,,2013-03-20 19:42:00,
2013-03-20 12:53:00,50.0,43.0,29.54,South,172,10.0,-999.0,78,-99.99,,,-99.99,,2013-03-20 19:53:00,
2013-03-20 13:01:00,49.0,43.0,29.56,South,172,9.0,-999.0,80,-99.99,,,-99.99,,2013-03-20 20:01:00,
2013-03-20 13:12:00,49.0,43.0,29.56,South,172,9.0,-999.0,80,-99.99,,,-99.99,,2013-03-20 20:12:00,
2013-03-20 13:22:00,47.0,42.0,29.57,SE,134,9.0,-999.0,84,-99.99,,,-99.99,,2013-03-20 20:22:00,
2013-03-20 13:31:00,46.0,43.0,29.57,SSE,160,7.0,-999.0,90,-99.99,,,-99.99,,2013-03-20 20:31:00,
2013-03-20 13:42:00,46.0,43.0,29.57,SSE,160,7.0,-999.0,90,-99.99,,,-99.99,,2013-03-20 20:42:00,
2013-03-20 13:52:00,47.0,44.0,29.58,South,171,6.0,-999.0,90,-99.99,,,-99.99,,2013-03-20 20:52:00,
2013-03-20 14:01:00,48.0,44.0,29.58,SSE,163,8.0,-999.0,87,-99.99,,,-99.99,,2013-03-20 21:01:00,
2013-03-20 14:11:00,48.0,44.0,29.58,SSE,163,8.0,-999.0,87,-99.99,,,-99.99,,2013-03-20 21:11:00,
2013-03-20 14:22:00,48.0,44.0,29.58,South,178,8.0,-999.0,86,-99.99,,,-99.99,,2013-03-20 21:22:00,
2013-03-20 14:32:00,48.0,44.0,29.59,SSE,151,9.0,-999.0,85,-99.99,,,-99.99,,2013-03-20 21:32:00,
2013-03-20 14:42:00,48.0,44.0,29.59,SSE,151,9.0,-999.0,85,-99.99,,,-99.99,,2013-03-20 21:42:00,
2013-03-20 14:52:00,49.0,44.0,29.58,SE,144,9.0,-999.0,84,-99.99,,,-99.99,,2013-03-20 21:52:00,
2013-03-20 15:02:00,49.0,43.0,29.58,SSW,197,9.0,-999.0,81,-99.99,,,-99.99,,2013-03-20 22:02:00,
2013-03-20 15:12:00,49.0,43.0,29.58,SSW,197,9.0,-999.0,81,-99.99,,,-99.99,,2013-03-20 22:12:00,
2013-03-20 15:22:00,49.0,43.0,29.59,South,174,8.0,-999.0,81,-99.99,,,-99.99,,2013-03-20 22:22:00,
2013-03-20 15:32:00,49.0,43.0,29.60,ESE,122,10.0,-999.0,81,-99.99,,,-99.99,,2013-03-20 22:32:00,
2013-03-20 15:42:00,49.0,43.0,29.60,ESE,122,10.0,-999.0,81,-99.99,,,-99.99,,2013-03-20 22:42:00,
2013-03-20 15:52:00,47.0,41.0,29.61,SSE,156,8.0,-999.0,81,-99.99,,,-99.99,,2013-03-20 22:52:00,
2013-03-20 16:01:00,48.0,42.0,29.61,SSE,153,8.0,-999.0,81,-99.99,,,-99.99,,2013-03-20 23:01:00,
2013-03-20 16:12:00,48.0,42.0,29.61,SSE,153,8.0,-999.0,81,-99.99,,,-99.99,,2013-03-20 23:12:00,
2013-03-20 16:22:00,48.0,42.0,29.62,South,184,8.0,-999.0,81,-99.99,,,-99.99,,2013-03-20 23:22:00,
2013-03-20 16:31:00,48.0,42.0,29.63,SSE,157,6.0,-999.0,80,-99.99,,,-99.99,,2013-03-20 23:31:00,
2013-03-20 16:42:00,48.0,42.0,29.63,SSE,157,6.0,-999.0,80,-99.99,,,-99.99,,2013-03-20 23:42:00,
2013-03-20 16:52:00,49.0,42.0,29.65,SW,218,6.0,-999.0,78,-99.99,,,-99.99,,2013-03-20 23:52:00,
2013-03-20 17:01:00,48.0,41.0,29.66,ESE,121,5.0,-999.0,78,-99.99,,,-99.99,,2013-03-21 00:01:00,
2013-03-20 17:11:00,48.0,41.0,29.66,ESE,121,5.0,-999.0,78,-99.99,,,-99.99,,2013-03-21 00:11:00,
2013-03-20 17:22:00,48.0,41.0,29.67,SSE,165,5.0,-999.0,78,-99.99,,,-99.99,,2013-03-21 00:22:00,
2013-03-20 17:32:00,49.0,42.0,29.66,SW,227,8.0,-999.0,77,-99.99,,,-99.99,,2013-03-21 00:32:00,
2013-03-20 17:41:00,49.0,42.0,29.66,SW,227,8.0,-999.0,77,-99.99,,,-99.99,,2013-03-21 00:41:00,
2013-03-20 17:52:00,48.0,41.0,29.67,SSE,153,8.0,-999.0,76,-99.99,,,-99.99,,2013-03-21 00:52:00,
2013-03-20 18:01:00,48.0,41.0,29.69,South,172,6.0,-999.0,77,-99.99,,,-99.99,,2013-03-21 01:01:00,
2013-03-20 18:11:00,48.0,41.0,29.69,South,172,6.0,-999.0,77,-99.99,,,-99.99,,2013-03-21 01:11:00,
2013-03-20 18:21:00,47.0,41.0,29.71,South,177,8.0,-999.0,78,-99.99,,,-99.99,,2013-03-21 01:21:00,
2013-03-20 18:32:00,46.0,40.0,29.72,SE,128,7.0,-999.0,79,-99.99,,,-99.99,,2013-03-21 01:32:00,
2013-03-20 18:42:00,46.0,40.0,29.72,SE,128,7.0,-999.0,79,-99.99,,,-99.99,,2013-03-21 01:42:00,
2013-03-20 18:52:00,46.0,40.0,29.73,SSE,160,4.0,-999.0,80,-99.99,,,-99.99,,2013-03-21 01:52:00,
2013-03-20 19:01:00,45.0,39.0,29.74,South,169,4.0,-999.0,79,-99.99,,,-99.99,,2013-03-21 02:01:00,
2013-03-20 19:12:00,45.0,39.0,29.74,South,169,4.0,-999.0,79,-99.99,,,-99.99,,2013-03-21 02:12:00,
2013-03-20 19:22:00,45.0,39.0,29.75,SSE,168,5.0,-999.0,79,-99.99,,,-99.99,,2013-03-21 02:22:00,
2013-03-20 19:32:00,44.0,38.0,29.76,SSE,161,5.0,-999.0,80,-99.99,,,-99.99,,2013-03-21 02:32:00,
2013-03-20 19:42:00,44.0,38.0,29.76,SSE,161,5.0,-999.0,80,-99.99,,,-99.99,,2013-03-21 02:42:00,
2013-03-20 19:52:00,44.0,38.0,29.76,SSE,161,5.0,-999.0,80,-99.99,,,-99.99,,2013-03-21 02:52:00,
2013-03-20 20:01:00,43.0,37.0,29.78,South,178,5.0,-999.0,79,-99.99,,,-99.99,,2013-03-21 03:01:00,
2013-03-20 20:11:00,43.0,37.0,29.78,South,178,5.0,-999.0,79,-99.99,,,-99.99,,2013-03-21 03:11:00,
2013-03-20 20:21:00,43.0,37.0,29.80,South,178,5.0,-999.0,79,-99.99,,,-99.99,,2013-03-21 03:21:00,
2013-03-20 20:32:00,42.0,36.0,29.82,SW,232,5.0,-999.0,78,-99.99,,,-99.99,,2013-03-21 03:32:00,
2013-03-20 20:43:00,42.0,36.0,29.82,SW,232,5.0,-999.0,78,-99.99,,,-99.99,,2013-03-21 03:43:00,
2013-03-20 20:53:00,42.0,36.0,29.84,SSW,194,6.0,-999.0,80,-99.99,,,-99.99,,2013-03-21 03:53:00,
2013-03-20 21:02:00,42.0,36.0,29.84,SSW,194,6.0,-999.0,80,-99.99,,,-99.99,,2013-03-21 04:02:00,
2013-03-20 21:12:00,42.0,36.0,29.84,SSW,194,6.0,-999.0,80,-99.99,,,-99.99,,2013-03-21 04:12:00,
2013-03-20 21:22:00,42.0,36.0,29.87,South,175,5.0,-999.0,80,-99.99,,,-99.99,,2013-03-21 04:22:00,
2013-03-20 21:32:00,42.0,37.0,29.89,South,190,3.0,-999.0,81,-99.99,,,-99.99,,2013-03-21 04:32:00,
2013-03-20 21:43:00,42.0,37.0,29.89,South,190,3.0,-999.0,81,-99.99,,,-99.99,,2013-03-21 04:43:00,
2013-03-20 21:53:00,42.0,37.0,29.91,SE,129,3.0,-999.0,81,-99.99,,,-99.99,,2013-03-21 04:53:00,
2013-03-20 22:02:00,41.0,36.0,29.93,NNW,327,2.0,-999.0,83,-99.99,,,-99.99,,2013-03-21 05:02:00,
2013-03-20 22:12:00,41.0,36.0,29.93,NNW,327,2.0,-999.0,83,-99.99,,,-99.99,,2013-03-21 05:12:00,
2013-03-20 22:22:00,38.0,34.0,29.94,NNW,333,0.0,-999.0,87,-99.99,,,-99.99,,2013-03-21 05:22:00,
2013-03-20 22:32:00,37.0,34.0,29.94,NNW,333,0.0,-999.0,90,-99.99,,,-99.99,,2013-03-21 05:32:00,
2013-03-20 22:43:00,37.0,34.0,29.94,NNW,333,0.0,-999.0,90,-99.99,,,-99.99,,2013-03-21 05:43:00,
2013-03-20 22:52:00,37.0,35.0,29.95,South,183,0.0,-999.0,91,-99.99,,,-99.99,,2013-03-21 05:52:00,
2013-03-20 23:02:00,37.0,35.0,29.96,South,184,0.0,-999.0,92,-99.99,,,-99.99,,2013-03-21 06:02:00,
2013-03-20 23:11:00,37.0,35.0,29.96,South,184,0.0,-999.0,92,-99.99,,,-99.99,,2013-03-21 06:11:00,
2013-03-20 23:22:00,37.0,35.0,29.96,South,184,0.0,-999.0,93,-99.99,,,-99.99,,2013-03-21 06:22:00,
2013-03-20 23:31:00,37.0,35.0,29.97,SW,218,0.0,-999.0,93,-99.99,,,-99.99,,2013-03-21 06:31:00,
2013-03-20 23:42:00,37.0,35.0,29.97,SW,218,0.0,-999.0,93,-99.99,,,-99.99,,2013-03-21 06:42:00,
2013-03-20 23:52:00,37.0,35.0,29.97,SSE,157,1.0,-999.0,94,-99.99,,,-99.99,,2013-03-21 06:52:00,